TimeCST,TemperatureF,Dew PointF,Humidity,Sea Level PressureIn,VisibilityMPH,Wind Direction,Wind SpeedMPH,Gust SpeedMPH,PrecipitationIn,Events,Conditions,WindDirDegrees,DateUTC
12:52 AM,44.1,34.0,68,30.10,10.0,SSW,5.8,-,N/A,,Clear,200,2012-11-29 06:52:00
1:52 AM,35.6,30.2,81,30.08,10.0,Calm,Calm,-,N/A,,Clear,0,2012-11-29 07:52:00
2:52 AM,36.0,30.9,82,30.09,10.0,Calm,Calm,-,N/A,,Clear,0,2012-11-29 08:52:00
3:52 AM,37.9,32.0,79,30.06,10.0,Calm,Calm,-,N/A,,Clear,0,2012-11-29 09:52:00
4:52 AM,30.9,28.0,89,30.06,10.0,Calm,Calm,-,N/A,,Clear,0,2012-11-29 10:52:00
5:52 AM,35.1,30.9,85,30.05,10.0,Calm,Calm,-,N/A,,Clear,0,2012-11-29 11:52:00
6:52 AM,34.0,30.0,85,30.06,10.0,Calm,Calm,-,N/A,,Clear,0,2012-11-29 12:52:00
7:52 AM,33.1,28.9,85,30.06,10.0,Calm,Calm,-,N/A,,Clear,0,2012-11-29 13:52:00
8:52 AM,41.0,35.1,79,30.05,10.0,Calm,Calm,-,N/A,,Clear,0,2012-11-29 14:52:00
9:52 AM,46.0,36.0,68,30.05,10.0,WSW,4.6,-,N/A,,Clear,240,2012-11-29 15:52:00
10:52 AM,51.1,37.0,59,30.04,10.0,SW,4.6,-,N/A,,Clear,230,2012-11-29 16:52:00
11:52 AM,54.0,39.0,57,30.02,10.0,WSW,8.1,-,N/A,,Clear,240,2012-11-29 17:52:00
12:52 PM,57.9,39.0,49,29.99,10.0,SSW,8.1,-,N/A,,Clear,210,2012-11-29 18:52:00
1:52 PM,60.1,39.9,47,29.97,10.0,SW,6.9,-,N/A,,Clear,230,2012-11-29 19:52:00
2:52 PM,62.1,39.9,44,29.95,10.0,SW,6.9,-,N/A,,Clear,230,2012-11-29 20:52:00
3:52 PM,62.1,39.9,44,29.95,10.0,SW,11.5,-,N/A,,Clear,220,2012-11-29 21:52:00
4:52 PM,55.0,39.9,57,29.97,10.0,SW,5.8,-,N/A,,Clear,220,2012-11-29 22:52:00
5:52 PM,50.0,39.9,68,29.97,10.0,SW,3.5,-,N/A,,Clear,220,2012-11-29 23:52:00
6:52 PM,41.0,35.1,79,29.99,10.0,Calm,Calm,-,N/A,,Clear,0,2012-11-30 00:52:00
7:52 PM,39.9,36.0,86,29.99,10.0,Calm,Calm,-,N/A,,Clear,0,2012-11-30 01:52:00
8:52 PM,37.9,35.1,89,30.00,10.0,Calm,Calm,-,N/A,,Clear,0,2012-11-30 02:52:00
9:52 PM,37.0,35.1,93,30.01,9.0,NNE,3.5,-,N/A,,Clear,20,2012-11-30 03:52:00
10:52 PM,36.0,34.0,93,30.02,8.0,Calm,Calm,-,N/A,,Clear,0,2012-11-30 04:52:00
11:52 PM,35.1,33.1,92,30.03,7.0,Calm,Calm,-,N/A,,Clear,0,2012-11-30 05:52:00